Wind_Speed
69 69 69 69 69 69 69 69 69 69 69 69 70 70 71 71 71 72 72 73 74 75 76 77 79 81 82 83 84 84 85 85 86 86 86 86 87 88 90 90 90 89 90 90 89 88 85 82 80 77 74 72 70 70 69 68 70 71 69 66 64 62 60 57 55 54 52 52 51 51 50 48 45 44 43 40 38 38 39 38 37 37 38 39 40
70 70 70 70 71 71 71 71 71 71 71 71 71 72 72 72 72 72 73 74 75 76 76 77 78 79 81 83 85 86 87 87 87 88 88 88 89 89 90 91 92 92 92 92 92 92 90 88 85 82 81 78 74 73 73 72 73 74 73 69 66 65 64 62 61 59 57 56 56 56 53 50 48 47 46 44 41 40 41 40 39 39 40 40 40
71 71 71 71 72 72 72 73 72 72 72 72 73 73 73 73 73 73 74 74 75 76 77 78 78 79 80 81 84 86 87 88 88 88 89 90 90 91 91 92 92 94 94 95 95 94 94 93 90 88 87 83 80 77 76 76 77 77 75 72 70 69 68 67 66 63 61 60 61 60 57 54 52 50 48 47 44 43 43 43 43 42 42 42 41
72 72 72 72 72 73 74 74 73 73 73 74 74 75 75 75 75 75 75 76 77 77 78 79 80 80 80 81 82 84 85 87 88 89 90 91 92 92 93 94 94 94 95 96 97 97 96 95 94 93 92 88 85 82 80 79 79 78 76 74 72 72 72 71 70 67 65 64 64 63 61 58 56 53 51 50 48 47 45 45 45 44 43 43 43
75 74 74 74 74 75 75 75 75 75 75 76 77 77 77 77 77 77 78 78 79 79 79 80 81 81 82 82 83 84 85 86 87 88 89 90 91 93 94 95 96 96 96 96 97 98 98 97 97 97 96 93 90 87 84 83 81 79 78 76 74 74 74 73 72 70 67 67 67 66 64 62 59 57 55 53 51 50 48 47 47 45 44 44 44
77 77 76 77 77 77 77 77 77 77 78 78 79 80 80 80 80 80 81 81 81 81 81 82 82 83 84 84 84 85 86 86 87 88 89 90 91 92 94 95 97 97 98 98 98 99 99 100 100 100 99 97 94 91 89 87 85 81 80 80 77 77 77 76 75 72 68 68 69 68 67 65 63 61 59 57 54 53 52 50 49 49 48 47 46
79 79 79 79 79 79 79 79 79 80 80 81 81 82 82 82 82 83 83 83 84 84 84 84 84 85 86 86 87 87 87 87 87 88 89 91 92 93 94 95 96 98 98 99 99 99 100 100 101 102 101 99 97 96 94 92 89 85 83 82 80 79 80 79 78 74 70 70 71 70 68 68 66 65 63 60 58 56 56 54 53 52 52 50 48
81 81 81 81 81 81 81 82 82 82 83 83 84 84 84 84 85 85 85 86 86 86 87 87 87 88 88 89 89 89 89 89 89 90 91 92 93 94 95 96 96 97 98 99 100 100 100 101 101 102 102 101 100 100 98 95 93 90 87 84 82 81 81 81 79 75 71 71 72 71 70 69 69 68 65 62 61 60 59 58 55 54 53 52 51
84 83 83 83 83 84 84 84 85 85 85 85 86 86 86 86 87 87 87 88 88 89 89 89 90 90 91 91 91 91 91 91 92 93 94 94 95 95 96 97 97 97 98 99 99 100 101 101 101 101 102 102 102 102 101 99 97 94 91 87 86 86 85 83 80 76 73 73 73 71 71 71 70 70 68 66 65 63 61 58 57 56 56 55 55
86 86 86 86 86 86 87 87 87 87 87 88 88 88 88 89 89 89 89 89 90 90 91 91 92 93 93 93 93 93 93 93 94 96 97 97 97 97 98 98 98 98 98 99 99 100 100 101 102 102 102 102 102 103 103 101 99 97 95 92 90 90 89 86 82 79 76 75 74 72 71 72 72 71 71 69 67 64 62 60 59 59 59 59 59
89 88 88 88 88 88 89 89 89 89 89 90 91 91 91 91 91 91 91 91 91 91 92 92 93 94 94 95 95 95 94 94 96 98 99 100 100 100 100 100 100 99 99 99 100 100 100 101 102 102 102 102 102 102 102 102 101 99 98 96 94 93 91 88 85 81 78 77 76 74 73 73 73 72 72 71 68 66 65 63 62 62 62 62 62
88 88 88 88 88 88 88 88 88 88 90 91 91 92 92 92 92 92 91 91 91 91 91 92 92 93 94 94 95 95 94 95 96 98 100 101 101 101 102 103 102 101 101 101 101 101 101 101 102 103 102 102 102 102 102 101 101 101 100 99 97 95 92 90 87 84 80 78 77 76 75 75 74 73 73 72 70 68 68 66 66 66 65 64 63
84 84 85 85 85 85 85 85 85 86 87 88 89 89 90 90 90 89 88 88 87 88 88 88 89 90 91 91 92 92 92 93 94 96 98 99 100 101 102 103 104 104 103 103 103 103 102 102 102 103 103 102 102 102 101 101 100 101 101 100 99 97 94 92 91 87 84 81 79 78 78 77 75 74 75 74 71 70 70 69 69 68 66 64 65
78 79 80 80 80 80 79 79 80 80 81 83 84 84 84 84 84 83 83 82 82 83 83 84 84 85 86 86 86 87 87 89 91 92 94 96 98 99 99 101 102 103 104 104 104 104 104 103 102 102 103 103 102 101 101 100 100 100 101 100 100 98 96 94 94 91 87 83 82 81 80 79 77 75 75 73 72 72 72 71 70 68 66 66 67
74 74 74 74 73 72 72 72 73 74 75 76 76 76 76 76 76 76 75 75 76 77 78 79 80 80 81 81 80 80 82 84 87 88 89 91 93 94 95 96 98 100 101 103 104 104 104 104 103 103 103 103 103 102 101 100 100 100 100 99 99 99 98 97 95 93 88 84 82 82 81 80 77 75 73 71 73 74 72 70 69 68 67 67 67
70 70 69 68 67 66 66 66 67 68 69 69 69 69 69 69 69 69 69 69 70 71 72 73 74 75 74 74 74 75 77 80 83 83 84 86 89 90 90 91 92 94 96 98 101 103 103 104 104 103 103 102 102 102 101 101 100 100 100 99 98 99 99 97 95 93 88 85 83 82 81 79 77 75 71 71 74 74 70 68 69 69 67 67 67
66 65 64 63 63 62 62 62 63 64 64 63 63 62 61 62 62 62 62 62 63 64 65 67 68 68 68 68 69 70 73 76 78 79 80 82 83 84 84 85 86 88 91 94 97 99 101 102 102 103 102 101 101 101 102 102 101 100 100 99 98 98 98 96 95 93 89 86 83 82 81 78 76 74 71 71 73 71 67 68 70 69 68 68 68
63 61 60 60 59 59 59 60 60 60 59 58 58 57 57 57 56 56 55 55 56 57 59 60 62 62 62 63 64 65 68 71 73 74 75 76 77 78 78 79 81 83 86 89 92 94 96 98 99 100 101 101 100 101 102 103 102 101 99 97 96 96 96 95 94 93 90 86 83 82 79 76 74 73 71 70 71 68 66 68 69 69 69 69 69
59 58 58 57 57 56 57 57 57 56 55 55 54 54 53 52 51 49 48 48 50 53 53 54 55 55 55 57 58 59 62 65 67 68 69 69 70 72 73 74 76 79 82 85 87 89 91 93 95 97 99 99 99 100 100 101 102 101 98 96 95 95 94 93 93 91 89 86 84 82 79 75 73 74 72 71 70 68 67 68 68 69 71 71 71
56 56 55 54 54 53 53 53 52 51 51 51 51 50 48 47 45 44 44 44 46 48 49 48 49 49 49 50 52 53 56 59 61 61 62 62 64 66 68 69 72 76 79 81 83 84 86 89 91 93 95 97 98 98 98 99 100 100 98 95 94 94 93 92 91 90 89 87 85 83 81 78 78 77 74 73 72 70 69 69 68 70 71 72 72
53 52 52 51 50 49 48 47 46 46 47 47 47 45 43 42 41 41 41 42 43 44 44 43 43 44 44 45 47 49 51 54 55 55 56 57 59 62 64 66 70 73 76 77 79 80 82 84 86 89 91 94 96 96 96 96 97 98 97 95 94 94 93 91 90 90 89 88 85 83 83 83 82 79 77 76 75 73 71 70 69 70 72 72 71
50 49 49 48 45 43 42 41 41 42 43 43 41 39 38 37 38 38 38 38 38 39 39 39 39 40 41 42 45 47 48 50 52 52 53 55 58 60 62 65 69 71 73 74 74 75 77 80 82 85 88 90 93 93 94 94 95 95 96 96 95 94 92 90 90 90 89 87 85 83 84 85 84 80 78 78 76 73 71 69 69 70 70 70 70
46 46 45 43 41 39 38 38 38 39 39 37 36 35 34 34 34 34 34 34 34 35 36 36 37 39 40 42 44 46 47 49 50 51 52 55 57 59 61 65 67 69 69 70 71 73 75 78 80 82 83 86 88 90 91 92 92 92 93 95 96 94 92 90 90 90 89 87 84 84 85 85 82 79 78 76 74 72 70 69 70 70 70 71 72
44 42 40 38 37 36 35 35 35 35 34 33 32 31 31 30 29 30 31 32 34 35 35 35 36 38 39 41 43 45 46 47 49 50 52 54 56 58 60 63 64 66 67 68 69 72 74 76 78 79 79 81 84 85 87 88 88 88 90 93 95 93 91 90 89 89 87 85 84 85 84 83 81 79 77 76 73 72 70 70 71 71 72 73 75
40 38 36 35 35 34 32 32 31 31 31 30 29 29 28 26 26 28 30 32 33 33 33 34 35 37 38 40 42 43 44 45 46 48 49 51 53 56 58 60 62 64 66 67 69 71 72 74 75 75 74 76 79 80 82 84 85 85 87 90 93 92 90 89 88 87 86 84 84 83 83 81 80 78 77 75 73 71 71 71 72 72 74 76 75
36 34 33 33 32 31 30 29 29 28 29 28 27 26 25 23 25 28 30 30 30 31 32 34 35 36 38 39 40 41 42 43 44 45 47 48 50 52 54 57 60 62 64 66 68 70 71 72 72 71 70 71 74 76 78 80 82 83 85 87 90 90 90 89 88 86 84 83 82 82 81 80 79 78 77 74 72 70 69 70 71 72 73 74 71
32 32 31 31 30 28 27 26 26 27 27 26 25 24 23 23 25 28 28 28 29 31 32 33 34 35 37 37 37 38 38 38 39 41 43 46 49 51 53 56 59 61 63 64 66 68 68 68 68 68 67 68 71 73 74 76 78 80 81 84 87 89 89 88 87 86 84 82 82 81 80 80 80 79 77 76 74 72 70 70 70 70 70 68 67
30 30 29 28 27 26 24 24 25 26 26 25 24 23 22 23 25 26 26 27 29 31 32 32 33 33 33 33 33 32 32 31 32 34 37 41 45 50 54 57 60 61 62 63 64 63 62 64 66 66 65 66 68 70 70 72 74 77 79 81 84 86 87 87 86 85 83 83 82 81 81 82 81 79 78 77 76 74 73 72 72 71 69 68 68
29 28 27 26 25 24 23 23 24 25 25 24 23 22 22 23 24 24 25 27 29 30 31 31 31 30 30 30 30 29 28 28 30 32 34 36 40 46 53 58 60 61 62 62 60 58 58 61 63 62 62 63 65 66 66 68 71 74 76 78 81 83 85 85 85 83 83 82 81 81 83 83 80 78 78 77 76 75 75 75 74 73 71 72 72
27 26 25 24 23 22 22 23 24 24 24 24 23 21 21 22 23 23 24 27 28 28 28 29 29 28 28 29 30 29 29 30 31 33 35 35 37 41 49 56 59 60 61 59 56 55 56 58 59 58 58 59 61 62 64 66 69 71 72 75 78 81 83 84 84 84 83 82 82 83 84 82 79 77 77 76 76 77 77 77 76 74 73 73 73
26 25 25 24 23 22 22 23 24 25 25 24 22 21 20 22 23 23 23 25 26 25 25 25 26 26 26 28 29 30 31 32 32 33 35 36 36 40 47 53 57 58 59 56 54 54 54 55 55 54 54 56 58 60 62 64 66 68 70 73 75 78 81 82 83 83 82 82 83 83 82 79 77 76 76 76 76 77 77 75 73 71 71 72 72
25 25 24 24 23 22 22 23 24 25 25 24 22 20 19 21 22 21 21 22 22 22 21 21 22 22 23 25 27 28 29 30 31 32 34 36 38 41 46 51 54 55 56 54 52 52 52 52 51 51 52 54 56 58 60 62 64 66 68 71 74 76 79 80 81 82 82 83 83 81 78 75 75 75 75 75 75 75 74 72 69 68 69 71 70
25 25 25 24 23 23 23 24 25 25 24 23 22 19 19 21 21 19 18 18 18 17 17 17 18 19 20 21 23 25 26 28 29 31 33 36 38 41 44 48 50 52 54 53 52 50 50 50 50 50 50 52 54 55 58 60 62 64 67 70 73 75 78 79 81 81 82 82 79 76 74 73 73 73 73 73 72 71 70 68 66 68 70 69 69
25 25 26 25 24 23 24 25 25 25 24 23 21 18 18 20 19 16 15 14 14 14 15 15 16 17 18 19 20 22 24 26 27 29 31 33 36 38 41 43 46 50 52 53 52 51 50 50 49 48 49 50 52 54 56 57 59 61 65 68 71 74 76 77 78 78 78 76 73 70 69 69 70 70 70 70 69 68 67 66 68 69 69 68 67
26 26 26 26 25 24 24 25 26 25 24 23 21 18 17 18 17 13 12 12 12 13 14 14 15 16 17 17 19 21 23 24 26 27 30 31 33 36 38 41 45 50 52 52 51 51 50 50 49 49 49 50 52 54 55 56 57 59 61 64 68 71 72 72 71 69 68 66 65 64 65 66 68 69 70 70 69 68 67 67 68 68 68 67 67
26 27 27 26 26 25 25 26 26 25 23 22 20 17 16 17 15 12 10 11 12 13 13 14 14 15 15 15 17 19 21 23 25 27 28 30 32 35 38 43 47 50 51 51 50 50 49 48 48 48 49 50 53 54 56 57 57 57 57 59 62 63 62 61 60 59 58 59 60 63 65 67 69 70 70 71 71 70 69 68 68 68 68 68 68
27 28 28 27 26 26 26 26 26 25 23 22 19 16 15 16 14 11 10 11 12 12 12 13 13 12 11 12 15 17 19 21 23 25 27 29 33 37 42 46 48 49 49 49 49 48 47 46 47 48 50 52 54 55 56 58 58 54 52 54 55 56 55 55 56 57 58 60 63 66 68 69 69 70 71 73 72 70 69 68 69 69 69 68 68
28 29 29 28 28 27 26 27 26 25 23 22 19 16 15 15 13 11 11 11 10 10 11 11 10 9 10 12 14 16 18 20 23 26 29 32 36 40 43 45 46 46 47 47 47 46 45 45 47 49 52 54 56 57 58 59 58 54 51 53 55 57 58 58 59 61 63 64 66 68 68 69 71 72 73 73 71 68 67 68 68 68 67 67 65
29 30 30 29 29 28 27 27 27 25 23 22 19 16 16 16 14 12 12 11 10 9 9 9 9 9 11 14 16 18 20 22 25 28 32 35 38 40 42 42 43 43 44 45 45 45 45 45 48 51 53 56 59 61 63 64 62 58 56 57 58 59 60 61 62 63 65 66 67 67 68 70 72 73 74 73 70 68 67 67 67 66 66 65 64
31 31 31 30 29 28 27 28 27 25 24 23 20 17 17 16 15 14 13 12 11 11 10 10 11 13 16 18 21 22 25 27 30 33 36 38 40 41 42 43 43 43 44 44 44 45 46 48 50 53 56 58 61 65 67 68 67 64 62 62 62 63 63 64 65 66 67 68 69 69 70 71 73 73 73 72 70 68 68 67 67 67 67 66 65
32 33 32 31 30 29 28 28 27 26 25 24 21 19 19 18 17 16 16 15 15 14 14 14 16 18 21 24 27 29 31 33 35 38 40 41 42 42 42 43 43 42 43 43 44 45 46 49 52 56 59 61 63 67 69 70 71 71 70 69 69 69 68 68 69 70 71 71 72 72 72 72 73 73 73 71 69 68 67 67 67 68 68 67 68
34 33 32 31 30 29 29 28 28 28 27 25 23 22 21 21 20 20 19 19 19 20 20 20 21 23 26 29 32 34 36 36 37 38 39 40 41 41 41 41 41 42 43 44 45 47 48 49 52 56 60 61 61 62 63 64 65 67 68 68 68 69 69 71 72 72 73 73 73 74 74 74 74 75 74 72 70 68 67 67 67 67 66 67 68
35 34 32 31 31 31 30 29 30 30 29 28 26 25 24 24 24 23 23 24 25 25 25 25 26 27 29 31 34 35 36 35 35 34 35 35 37 39 41 44 46 47 48 49 50 51 52 52 53 55 56 57 56 54 54 54 55 56 57 59 60 62 66 69 72 73 73 73 74 75 75 75 76 76 74 71 70 69 68 68 67 66 66 68 70
37 35 33 32 32 32 31 31 32 32 32 30 28 28 27 27 27 27 27 28 30 29 29 30 30 31 32 33 34 35 35 34 33 32 32 34 37 41 46 50 53 54 54 54 55 55 55 55 54 54 54 54 53 53 52 53 53 54 55 56 58 61 65 68 70 72 73 73 74 75 75 75 76 75 72 70 70 70 70 70 69 68 69 71 73
38 36 34 33 32 32 32 32 33 35 35 33 31 30 30 31 31 31 32 33 33 33 32 34 35 34 35 35 35 35 35 35 35 34 34 37 43 49 53 54 55 56 55 55 54 55 55 55 55 55 55 55 55 55 55 55 56 57 59 61 63 65 68 69 71 72 73 73 74 75 75 75 74 72 70 69 70 71 72 72 71 72 73 75 77
39 38 36 34 33 32 32 33 35 37 38 36 34 33 33 34 35 35 36 36 37 36 35 35 37 37 37 37 37 36 35 36 37 37 38 43 50 55 56 55 55 55 54 54 54 55 56 57 57 57 57 57 57 58 58 59 60 61 62 63 65 66 68 69 70 71 72 73 74 74 74 73 73 71 70 70 71 73 74 74 74 75 77 79 80
40 40 38 36 33 32 32 34 36 39 41 40 37 35 36 37 38 39 40 39 39 39 38 36 37 38 38 38 39 39 38 38 39 41 45 53 57 57 55 54 54 53 54 55 56 57 57 57 57 57 58 58 59 59 60 60 61 61 62 63 64 65 67 68 69 71 72 73 73 72 71 71 71 71 71 72 73 74 75 75 76 77 80 81 82
41 42 40 38 35 33 33 34 37 41 43 43 41 39 38 39 41 43 43 43 42 42 41 39 38 38 39 39 40 40 41 41 42 44 52 61 63 58 55 55 56 55 56 58 59 60 59 58 58 58 58 59 60 60 61 61 61 62 63 63 64 66 67 68 69 70 70 70 71 70 70 70 71 71 72 73 74 75 76 77 78 80 82 83 84
43 43 43 40 37 35 34 35 38 42 45 46 44 42 41 42 43 45 47 46 45 44 43 42 40 40 40 41 41 42 43 44 44 49 58 67 67 61 59 59 59 58 58 60 62 62 61 59 59 60 61 62 62 63 63 63 64 64 65 65 65 66 66 66 66 66 66 66 66 67 68 70 71 72 73 74 75 76 77 78 80 81 82 84 85
44 45 45 43 40 37 35 36 39 44 47 49 48 46 45 44 46 48 49 49 48 46 45 44 43 43 43 44 44 44 45 46 48 53 64 71 70 65 63 63 62 61 62 63 64 65 63 60 60 61 62 63 64 64 64 64 64 65 65 65 65 64 64 64 64 64 64 65 66 67 68 69 70 72 73 74 75 76 77 78 79 81 82 83 84
46 46 46 45 43 40 37 37 40 46 50 51 51 50 49 47 48 49 51 51 50 49 47 46 46 46 47 48 48 47 48 50 52 58 68 74 72 67 65 64 64 64 65 66 67 68 66 62 60 61 61 62 63 64 64 65 65 66 66 66 65 65 65 65 66 67 68 68 69 69 70 70 71 72 73 74 75 76 77 78 79 81 82 83 84
Wind_Direction
255 255 255 254 254 254 254 253 253 253 253 252 252 252 251 250 249 248 248 247 246 245 243 242 240 240 240 240 240 240 239 239 239 238 237 236 235 234 234 234 232 230 231 233 234 235 236 237 237 236 237 236 235 236 237 239 242 245 246 246 245 245 245 246 248 250 252 255 256 256 258 261 262 264 268 272 275 276 275 275 275 274 273 273 273
255 255 255 254 254 254 254 254 253 253 253 252 252 251 250 250 249 248 247 246 246 245 244 243 242 240 239 239 240 240 240 239 239 239 238 238 237 235 234 234 234 233 232 232 233 235 236 237 238 238 238 237 236 236 236 237 240 244 246 246 246 246 246 246 247 248 250 253 255 256 257 260 262 263 265 269 273 274 274 275 275 273 273 274 274
256 255 255 254 254 254 254 254 254 253 253 253 252 251 250 249 249 248 248 247 246 245 244 244 243 242 240 239 239 239 239 239 239 238 238 238 238 237 236 235 234 233 233 232 232 233 235 236 237 238 238 238 237 237 237 236 238 243 247 247 247 247 247 247 248 248 250 252 254 256 258 259 260 262 264 266 269 271 272 274 274 274 273 274 274
257 257 256 255 255 255 254 254 254 254 254 254 253 252 251 251 250 250 249 248 247 246 246 244 244 243 242 241 240 239 239 239 239 239 238 238 238 238 237 236 235 234 233 233 233 233 233 235 236 237 238 238 238 238 237 238 238 241 245 247 248 248 248 249 249 249 250 252 254 256 258 259 260 262 264 265 267 269 271 272 274 274 273 273 273
259 258 258 257 257 256 255 255 255 255 255 255 255 254 253 252 252 251 251 250 249 248 247 246 245 244 243 243 242 241 240 239 239 239 239 238 238 238 238 238 236 235 234 233 233 233 233 233 234 236 237 238 238 238 238 239 239 240 242 244 245 247 248 249 249 250 250 252 254 256 258 259 261 261 263 264 266 268 270 271 272 272 272 273 273
260 260 260 259 259 258 257 257 257 257 257 256 256 255 254 254 253 253 252 252 251 250 248 247 246 246 245 244 243 242 242 241 239 239 238 238 238 238 238 238 238 237 235 234 234 233 232 232 233 235 236 236 237 238 238 238 239 239 241 243 243 244 246 248 249 249 250 251 254 256 258 260 261 261 262 264 265 267 268 269 269 269 271 274 276
262 262 262 261 261 260 259 259 258 258 257 257 256 256 255 255 254 253 253 253 252 251 250 249 248 247 246 245 244 243 243 242 241 240 239 238 238 238 238 238 238 237 236 235 235 234 233 232 232 233 235 235 236 237 237 238 238 238 240 242 243 244 245 247 248 249 250 252 254 256 257 259 261 262 262 263 264 265 266 267 268 270 272 275 278
263 263 263 262 262 261 261 260 259 259 258 257 257 256 256 255 254 254 253 253 253 252 252 251 249 248 247 246 245 244 244 243 243 242 241 240 238 238 238 238 238 238 237 236 235 235 234 234 233 232 233 234 235 236 236 237 237 238 238 240 242 244 245 246 248 249 250 251 253 255 257 259 260 261 262 262 262 262 265 267 270 271 272 274 276
264 263 263 262 262 262 261 261 260 260 259 258 258 257 256 256 255 254 254 253 253 253 253 252 251 250 249 248 246 245 244 244 243 243 242 241 240 239 238 237 237 238 238 237 237 236 235 235 234 233 233 233 234 235 236 236 237 237 237 238 240 242 244 245 247 248 249 250 252 254 256 257 259 260 260 261 261 262 265 268 269 270 271 272 274
264 263 263 262 262 262 261 261 261 261 260 260 259 259 258 257 256 256 255 254 254 254 253 253 252 251 250 249 248 247 245 244 244 243 242 242 241 241 240 238 238 237 237 238 237 236 236 235 235 234 233 233 233 234 235 235 236 237 237 237 238 240 243 245 246 247 248 249 250 252 253 255 256 257 259 260 261 263 265 266 268 268 269 271 272
264 264 263 263 262 262 261 261 261 261 261 261 260 260 259 258 258 257 257 256 255 255 254 253 252 252 251 250 249 248 246 244 243 243 242 242 241 241 240 240 239 238 237 238 238 237 236 235 235 235 234 233 233 233 234 235 235 236 237 237 238 239 241 243 245 246 247 248 249 250 251 252 254 255 258 260 262 263 264 266 267 268 269 271 273
264 264 263 263 262 262 261 261 261 261 260 260 260 259 259 259 258 258 257 257 256 255 254 253 253 252 251 250 249 248 246 245 244 243 242 242 241 240 239 240 239 239 238 238 238 237 237 236 235 235 235 234 233 233 234 234 234 235 236 237 237 238 240 242 243 244 244 246 247 248 249 250 251 254 257 259 261 262 263 265 266 267 269 272 273
264 263 263 263 262 262 262 261 261 260 260 259 259 259 258 258 258 258 257 257 256 255 254 253 252 252 251 250 249 248 246 245 244 243 242 241 241 240 239 239 239 239 238 238 237 237 237 236 235 235 234 234 233 233 233 234 234 234 235 236 237 237 238 240 241 241 241 242 244 245 247 248 250 253 256 259 261 262 262 263 264 267 270 272 273
264 264 263 263 263 263 262 262 262 261 260 260 259 259 258 258 258 257 257 256 255 255 254 253 252 251 250 249 248 247 246 245 244 242 241 241 240 239 238 238 238 238 238 238 238 237 237 236 236 235 234 234 234 233 233 233 233 234 235 235 236 237 237 238 240 240 240 241 243 244 246 248 250 252 255 258 260 260 261 262 264 267 269 270 272
266 265 265 265 265 265 264 264 263 262 262 261 260 260 259 259 258 257 256 256 255 254 253 252 252 251 250 249 248 247 246 245 244 242 241 240 239 239 238 238 238 238 238 238 238 237 237 236 236 235 234 234 233 233 233 232 232 233 234 234 235 236 237 237 239 240 240 240 242 244 246 248 249 251 253 256 257 258 260 262 264 266 267 269 271
267 267 268 268 268 268 267 266 265 264 263 262 261 261 260 260 259 258 257 255 254 253 252 252 251 250 249 248 247 246 245 244 243 242 240 239 239 238 237 237 237 237 237 237 237 237 237 236 236 235 235 234 233 233 233 232 232 232 233 234 234 235 236 237 238 240 240 240 241 243 245 247 248 250 251 253 255 257 260 262 263 265 266 268 270
268 269 270 270 270 269 268 268 266 265 265 264 264 263 262 261 259 258 256 255 254 252 252 251 250 249 248 246 245 244 243 243 242 241 240 239 238 237 236 236 236 236 237 236 236 236 236 236 235 235 235 234 233 232 232 232 231 231 232 233 233 234 236 236 237 238 239 239 239 241 244 246 248 249 250 251 254 257 259 261 262 264 265 267 268
270 271 271 271 270 270 269 268 268 267 267 267 266 265 263 261 260 258 256 255 254 252 250 249 249 247 246 245 243 242 242 242 241 241 239 238 238 237 236 236 235 236 236 236 236 235 235 235 235 235 234 233 232 232 231 231 231 231 231 232 233 234 235 236 237 238 238 238 239 240 242 244 246 248 249 249 252 255 258 259 261 263 265 266 268
271 272 272 271 271 270 269 268 268 268 268 268 267 265 264 263 261 260 257 255 254 252 249 248 248 247 245 244 243 241 242 242 241 240 239 238 238 237 236 235 235 235 236 236 236 235 235 234 234 234 234 233 232 231 231 231 231 231 230 230 231 233 234 235 236 237 238 238 238 239 240 241 242 244 246 247 250 253 255 257 260 263 265 267 268
272 272 272 272 270 269 268 268 268 267 267 266 265 264 264 263 262 260 258 255 253 251 249 248 247 246 245 243 243 241 241 241 240 239 239 238 237 237 236 235 235 235 235 236 236 235 235 234 234 233 233 233 232 231 230 230 230 230 229 229 230 231 233 233 235 236 237 237 237 238 238 238 239 241 243 245 248 251 254 257 260 263 265 266 268
273 273 272 271 270 268 268 267 267 265 264 263 264 264 263 262 261 258 255 253 251 250 249 247 246 245 244 242 242 241 240 240 240 238 237 236 236 235 235 235 235 235 235 235 235 235 235 234 234 233 233 232 231 231 230 229 229 229 228 228 228 229 230 231 232 234 235 236 237 237 238 239 240 241 243 245 247 250 253 256 259 261 262 264 267
273 273 272 271 270 268 267 266 265 264 262 262 263 263 261 258 256 254 251 250 248 247 246 245 243 243 242 241 241 240 239 240 239 237 236 235 235 234 233 233 234 234 234 235 235 235 235 235 234 233 232 232 231 230 229 228 228 228 227 227 226 227 228 229 231 232 234 235 236 237 238 240 241 242 244 246 248 250 252 255 256 258 260 263 266
273 271 270 270 269 267 265 264 263 262 262 262 261 259 256 253 250 249 247 246 244 243 243 242 241 241 241 240 240 239 238 238 238 236 234 234 234 233 233 233 233 234 234 234 234 234 234 234 233 232 231 231 231 229 228 228 227 227 226 226 225 226 226 228 230 231 233 234 234 236 238 240 242 243 244 246 248 250 251 253 254 256 259 262 264
271 270 269 269 268 266 264 263 262 261 261 259 256 253 251 247 245 244 243 242 241 241 240 240 238 237 237 237 237 237 236 236 236 235 234 233 232 232 232 232 233 233 233 232 232 231 232 232 232 232 231 231 231 229 228 227 227 226 226 225 224 224 225 226 228 230 232 233 234 235 237 239 241 242 244 245 247 249 250 251 253 255 258 261 263
269 268 268 267 266 265 264 262 260 258 257 254 251 248 245 242 240 240 240 239 239 238 236 235 233 233 233 233 234 235 235 235 235 235 234 233 232 231 231 231 231 232 232 231 230 230 230 230 231 231 230 230 230 229 227 226 226 225 225 224 223 223 223 224 227 229 230 232 233 235 237 239 241 242 243 244 246 248 249 251 253 256 258 261 263
268 267 266 266 265 263 261 258 256 254 252 249 246 244 241 238 235 235 235 235 236 235 234 233 232 233 234 234 235 235 236 236 236 236 236 236 234 231 230 230 230 230 230 229 229 229 228 229 230 229 228 228 229 228 227 225 224 224 224 223 222 221 221 222 224 227 229 230 232 234 236 238 239 241 242 242 244 246 247 250 253 256 259 262 264
267 266 265 264 262 259 256 253 251 249 247 245 243 241 237 232 230 230 231 232 235 238 238 238 237 237 237 238 238 236 235 235 235 235 236 236 236 234 231 229 228 228 228 228 228 228 228 227 228 228 226 225 226 226 225 224 223 222 222 222 221 220 220 220 222 224 226 228 230 233 235 237 238 239 241 241 241 243 245 248 251 255 258 260 263
267 266 263 261 258 254 251 248 246 245 243 242 240 237 231 226 226 229 232 235 240 243 244 245 244 242 240 237 234 231 229 230 232 232 232 232 233 233 232 230 228 227 227 227 226 226 225 225 226 226 224 223 224 224 223 222 222 221 221 220 219 218 218 219 221 223 225 227 229 231 234 236 237 238 239 240 241 242 245 247 250 253 255 258 262
265 263 260 257 253 249 245 242 241 240 239 239 237 232 226 225 228 232 237 242 246 248 248 248 245 242 236 229 226 226 228 232 236 238 236 233 230 229 230 230 228 227 227 227 225 223 222 222 224 224 222 221 222 222 220 219 219 219 219 218 217 216 217 218 220 222 224 226 228 230 233 235 237 237 238 239 241 243 245 247 249 251 254 258 262
262 259 255 251 247 243 239 236 236 236 236 236 233 227 225 229 234 237 243 248 249 248 245 242 239 235 232 229 228 231 235 239 241 242 242 240 235 229 227 228 227 226 226 226 224 220 219 220 221 221 220 219 219 218 217 216 216 216 216 216 216 215 215 216 218 220 222 224 227 229 232 236 237 238 239 240 241 243 245 248 250 252 256 259 261
257 253 249 244 240 236 231 230 231 231 232 233 229 225 229 237 241 243 247 249 246 240 236 236 236 235 234 234 234 234 236 238 240 240 241 241 237 230 226 226 225 223 223 222 220 218 217 217 218 218 217 216 216 215 214 213 213 213 213 213 213 213 214 215 217 219 221 223 226 229 232 235 238 239 241 241 243 244 247 249 252 254 256 257 259
249 245 242 239 234 229 225 224 226 227 229 229 225 224 234 244 247 247 248 244 237 232 233 238 242 242 241 240 237 234 233 233 234 236 237 236 233 228 224 223 222 219 217 216 216 215 214 214 214 214 214 214 214 213 212 211 210 210 210 210 210 211 212 214 216 217 220 222 225 228 231 234 236 238 240 241 243 246 248 251 252 253 254 256 258
241 239 237 234 229 225 222 221 222 224 226 225 222 224 237 247 250 249 244 236 233 236 242 249 253 253 251 247 242 237 233 231 231 232 233 232 229 225 221 220 217 213 210 209 210 209 209 211 212 212 211 212 211 209 208 208 207 207 207 208 208 209 210 212 214 216 219 222 225 227 230 232 235 237 240 242 244 247 249 251 251 252 254 256 259
235 233 232 229 225 221 219 219 220 221 223 222 221 224 237 248 249 244 237 236 243 253 259 263 265 264 259 252 245 239 234 230 229 229 228 227 224 221 218 215 210 204 202 203 204 203 205 207 209 209 209 208 207 205 204 203 204 205 206 206 207 208 210 212 214 217 219 222 225 227 230 232 235 238 240 242 244 246 248 249 250 252 254 257 261
230 229 228 226 222 218 216 216 218 219 220 220 221 225 236 244 243 236 234 246 260 267 270 274 275 270 261 251 242 236 231 227 225 223 220 218 215 212 208 203 198 196 196 198 199 200 202 204 206 205 204 203 202 200 199 198 199 201 203 205 207 208 210 211 214 216 219 221 223 226 229 232 235 237 239 241 243 245 246 248 250 252 256 259 261
227 226 226 224 221 217 214 214 216 218 218 220 222 226 232 237 234 229 237 255 267 272 276 278 275 267 255 242 233 227 222 219 217 214 211 208 204 199 194 190 189 190 192 194 195 197 200 202 203 202 199 197 196 195 194 193 193 194 198 202 205 207 209 210 211 213 215 218 221 224 227 230 233 236 239 241 243 244 246 248 250 254 257 259 261
224 224 224 223 221 217 214 213 214 215 216 219 223 225 227 227 225 225 239 254 263 269 273 273 269 258 241 227 219 214 209 207 205 202 198 194 189 185 182 182 184 186 188 190 192 194 196 198 198 197 194 192 191 190 190 189 187 186 192 198 201 202 203 204 205 208 211 215 219 223 226 229 233 236 238 241 243 245 248 249 252 254 257 259 261
220 221 221 222 221 218 215 214 214 213 213 218 222 221 219 219 217 220 234 245 252 256 259 259 253 235 214 201 197 193 191 190 188 184 181 178 176 176 176 178 181 183 185 187 189 191 193 194 194 192 190 188 187 186 185 185 183 183 188 195 198 199 200 201 203 207 212 216 220 224 227 231 233 236 238 241 243 246 248 251 253 255 257 259 261
217 218 219 220 220 218 216 215 214 212 212 216 217 214 211 213 213 216 224 230 230 230 234 234 221 201 185 177 173 171 170 170 169 168 168 167 168 169 171 173 176 178 182 185 187 188 189 190 190 189 187 186 185 183 183 182 182 183 188 194 197 200 202 203 206 210 214 218 222 226 229 232 234 236 239 242 244 245 247 250 253 255 256 258 260
214 215 217 220 220 218 217 217 216 213 211 213 212 206 204 208 211 211 211 209 203 201 201 196 184 172 163 158 155 154 154 156 156 157 158 159 161 164 166 169 172 176 181 184 186 187 186 185 185 185 183 183 184 184 183 183 184 187 191 195 198 200 203 206 209 212 216 219 223 227 229 232 235 238 240 242 244 246 248 251 253 254 256 258 261
212 213 215 218 219 218 217 218 218 215 212 210 206 199 199 204 207 204 199 193 186 182 179 174 166 160 155 152 149 147 148 150 152 154 156 158 161 164 167 170 174 178 182 185 184 183 182 182 182 181 180 182 185 187 187 188 189 191 194 197 200 202 205 209 212 215 218 222 225 227 230 233 236 239 241 242 244 247 250 252 253 254 257 259 261
210 211 214 217 219 218 217 218 218 217 213 209 202 195 196 202 202 196 190 185 179 174 170 167 162 157 154 152 149 148 149 151 154 158 161 163 165 167 169 171 174 176 177 176 174 173 174 177 180 181 181 182 185 189 191 193 195 197 200 202 204 206 209 212 214 217 220 224 227 229 232 234 237 239 240 242 244 247 249 252 253 255 257 260 262
209 210 211 215 218 219 217 216 216 215 213 208 199 192 194 199 198 191 186 182 177 173 170 166 161 158 156 154 153 153 154 156 159 163 166 169 171 171 169 167 166 165 165 165 166 169 172 175 179 181 181 181 183 186 190 193 197 200 204 206 209 211 214 216 218 220 223 226 229 231 233 235 237 239 241 243 245 247 249 251 254 256 258 260 262
208 208 209 214 218 219 218 216 214 212 211 207 198 191 193 198 195 189 185 183 179 176 172 167 163 161 160 159 160 160 161 162 164 166 168 170 172 170 166 163 162 162 164 167 170 173 175 177 178 179 181 182 183 187 190 194 197 201 204 206 209 212 215 218 221 223 224 227 229 232 234 236 238 240 242 244 246 247 249 251 254 256 259 261 262
207 206 208 212 217 218 218 216 212 209 209 206 198 191 193 196 192 188 186 185 183 181 178 173 168 167 167 168 168 169 170 170 169 167 169 171 169 166 164 164 165 167 169 172 174 177 178 179 179 181 183 185 188 190 193 197 200 203 205 207 209 212 215 218 221 223 225 227 229 232 234 236 238 240 242 244 246 248 251 253 255 257 259 261 262
207 206 206 210 215 218 219 217 211 206 205 204 199 193 193 195 192 188 188 188 186 185 184 182 177 175 175 176 176 176 178 178 174 170 170 171 169 166 166 169 172 173 174 176 178 180 182 183 183 185 187 190 192 195 197 200 203 206 208 210 212 214 217 220 222 224 226 228 231 233 236 238 240 241 243 245 248 251 253 255 257 258 260 262 263
207 206 206 208 213 217 219 218 212 205 202 201 199 195 194 195 192 189 189 190 189 187 188 189 187 184 182 183 183 183 183 183 180 175 171 170 169 170 172 176 177 178 179 180 181 182 185 187 188 190 192 194 196 199 202 205 207 210 212 214 216 218 220 223 225 227 229 231 233 236 238 241 243 245 246 248 250 252 254 256 257 259 261 262 264
207 206 206 207 210 214 218 218 213 206 201 200 198 197 196 196 194 191 190 192 192 190 190 191 193 192 189 188 189 189 187 185 184 179 173 171 172 175 179 182 182 183 184 185 184 185 187 189 191 194 196 199 201 203 206 208 211 214 216 218 220 222 224 226 228 230 233 235 238 240 242 244 246 248 249 250 251 253 254 256 258 260 262 263 265
207 207 206 206 208 211 215 217 213 207 202 199 198 198 198 198 196 194 193 194 195 195 194 194 197 198 196 193 192 193 190 187 185 182 177 174 176 180 185 187 187 187 188 189 188 187 188 190 193 196 198 201 204 206 208 211 213 215 218 220 222 224 226 228 231 233 236 238 240 242 243 245 247 248 249 250 252 254 255 257 259 261 262 264 266
209 208 207 206 207 209 212 214 213 208 204 200 198 198 199 200 199 197 197 197 198 199 200 199 200 201 200 196 193 193 192 188 185 183 180 178 180 184 189 190 191 191 191 191 191 190 190 192 195 198 200 203 206 208 210 212 214 216 218 220 222 224 227 229 232 234 236 238 240 242 243 245 247 249 250 251 253 255 257 259 261 262 264 266 268
210 209 208 207 207 208 210 212 212 209 206 202 200 199 200 201 201 200 200 200 201 202 204 204 203 203 201 196 193 193 193 189 185 184 183 182 184 187 191 194 195 195 195 194 194 193 193 195 198 201 204 206 208 210 212 213 215 217 219 221 223 225 227 230 232 235 237 239 240 242 244 246 248 250 251 253 255 257 259 261 263 265 267 269 271
Height
10533 10534 10537 10539 10540 10541 10543 10545 10546 10547 10548 10550 10551 10552 10554 10555 10557 10559 10561 10563 10566 10568 10571 10573 10576 10579 10581 10584 10587 10590 10594 10597 10601 10605 10609 10614 10618 10622 10625 10630 10636 10641 10643 10646 10650 10653 10658 10661 10663 10667 10669 10672 10676 10679 10681 10683 10685 10686 10689 10694 10698 10701 10704 10707 10709 10712 10714 10714 10716 10718 10719 10721 10723 10723 10723 10724 10725 10725 10724 10724 10724 10724 10723 10722 10722
10523 10524 10527 10529 10530 10531 10532 10534 10535 10537 10538 10540 10541 10541 10543 10544 10546 10548 10550 10551 10554 10556 10559 10562 10565 10568 10571 10573 10576 10579 10582 10586 10590 10594 10598 10602 10606 10610 10614 10618 10624 10629 10633 10637 10640 10644 10647 10650 10654 10658 10659 10663 10667 10671 10675 10677 10677 10678 10681 10686 10692 10694 10697 10700 10702 10706 10709 10710 10710 10712 10714 10717 10718 10718 10719 10720 10721 10721 10720 10720 10720 10719 10719 10718 10718
10512 10514 10516 10518 10519 10520 10521 10522 10524 10526 10527 10528 10529 10530 10531 10533 10535 10536 10538 10540 10542 10544 10547 10550 10553 10556 10560 10563 10565 10568 10571 10575 10579 10583 10587 10590 10594 10598 10602 10607 10612 10616 10622 10626 10629 10633 10637 10640 10645 10648 10649 10654 10659 10663 10667 10669 10670 10672 10675 10679 10684 10687 10690 10693 10695 10700 10704 10704 10704 10706 10709 10712 10712 10713 10715 10716 10716 10716 10716 10716 10716 10715 10715 10714 10714
10500 10503 10505 10506 10508 10509 10509 10511 10513 10514 10515 10516 10516 10517 10518 10520 10522 10524 10526 10528 10530 10533 10535 10538 10542 10545 10549 10552 10554 10557 10561 10564 10568 10572 10576 10579 10582 10586 10590 10594 10599 10604 10610 10614 10618 10622 10627 10631 10635 10637 10639 10644 10650 10654 10658 10660 10663 10668 10670 10673 10677 10679 10683 10687 10688 10694 10698 10698 10699 10701 10704 10706 10707 10709 10710 10711 10712 10712 10712 10712 10711 10711 10710 10710 10709
10489 10491 10493 10495 10496 10496 10498 10500 10501 10502 10502 10503 10503 10504 10506 10508 10510 10512 10513 10515 10518 10521 10524 10527 10530 10533 10537 10540 10543 10546 10550 10553 10557 10561 10564 10568 10571 10574 10578 10581 10586 10591 10596 10601 10606 10611 10616 10622 10625 10626 10628 10635 10641 10645 10650 10652 10656 10662 10664 10667 10670 10672 10675 10679 10682 10687 10692 10692 10693 10696 10698 10700 10702 10703 10704 10705 10707 10707 10707 10707 10707 10706 10706 10705 10704
10477 10479 10481 10482 10482 10484 10486 10487 10488 10489 10489 10489 10490 10491 10493 10495 10497 10499 10501 10503 10506 10509 10513 10516 10518 10521 10524 10528 10531 10535 10538 10541 10546 10550 10553 10556 10559 10563 10566 10569 10573 10578 10583 10588 10593 10598 10604 10610 10614 10615 10618 10626 10632 10637 10641 10643 10648 10655 10657 10659 10663 10666 10668 10671 10674 10679 10685 10686 10686 10690 10693 10694 10696 10697 10698 10700 10702 10702 10701 10701 10701 10701 10700 10700 10700
10465 10467 10468 10469 10470 10471 10473 10474 10475 10475 10476 10476 10477 10478 10480 10483 10484 10486 10489 10491 10493 10496 10500 10503 10506 10509 10511 10514 10517 10521 10525 10529 10533 10537 10541 10544 10547 10550 10553 10556 10560 10564 10570 10575 10580 10586 10592 10597 10602 10605 10609 10616 10623 10626 10629 10633 10639 10646 10650 10652 10656 10659 10660 10663 10665 10672 10679 10680 10680 10683 10686 10688 10690 10691 10693 10695 10696 10695 10695 10695 10695 10696 10696 10696 10696
10453 10454 10455 10455 10457 10458 10459 10460 10461 10461 10462 10463 10464 10466 10468 10470 10472 10474 10476 10478 10481 10483 10486 10489 10493 10495 10498 10500 10503 10507 10512 10516 10520 10523 10526 10530 10533 10537 10540 10543 10547 10552 10557 10562 10567 10574 10579 10584 10590 10595 10600 10607 10611 10614 10619 10625 10630 10636 10642 10647 10650 10650 10651 10654 10658 10665 10673 10674 10674 10677 10680 10682 10683 10685 10687 10688 10688 10688 10688 10689 10691 10692 10691 10691 10690
10440 10440 10441 10443 10444 10445 10446 10446 10447 10447 10449 10450 10451 10454 10456 10457 10458 10461 10463 10465 10467 10469 10472 10475 10478 10480 10483 10486 10489 10493 10498 10503 10505 10508 10510 10513 10517 10522 10526 10530 10535 10540 10544 10549 10555 10561 10567 10572 10579 10584 10590 10596 10599 10602 10609 10616 10620 10625 10632 10639 10642 10641 10642 10646 10651 10659 10666 10667 10668 10671 10674 10675 10677 10678 10680 10680 10680 10682 10684 10685 10686 10686 10685 10685 10685
10426 10427 10428 10429 10430 10431 10432 10432 10433 10435 10436 10437 10438 10440 10441 10443 10444 10446 10449 10452 10454 10456 10458 10460 10462 10464 10467 10470 10474 10478 10483 10487 10489 10490 10493 10497 10502 10506 10511 10516 10521 10527 10532 10536 10542 10549 10555 10560 10566 10572 10578 10584 10588 10593 10599 10605 10610 10616 10622 10629 10633 10633 10635 10639 10645 10652 10657 10659 10661 10664 10667 10668 10670 10671 10671 10672 10674 10677 10679 10680 10679 10679 10679 10679 10679
10412 10413 10414 10415 10416 10417 10418 10419 10421 10423 10423 10424 10424 10425 10426 10428 10430 10432 10435 10437 10439 10442 10444 10445 10446 10448 10451 10454 10458 10462 10467 10471 10472 10473 10476 10481 10487 10492 10496 10501 10506 10513 10519 10524 10529 10535 10541 10547 10553 10559 10565 10572 10578 10583 10588 10594 10601 10606 10611 10617 10622 10625 10630 10634 10638 10644 10649 10651 10654 10657 10660 10661 10662 10663 10663 10665 10669 10672 10672 10673 10673 10672 10673 10673 10674
10399 10399 10400 10401 10402 10403 10405 10407 10409 10410 10409 10409 10409 10410 10411 10413 10415 10417 10420 10422 10424 10426 10427 10429 10430 10432 10435 10438 10441 10445 10450 10454 10455 10457 10460 10465 10471 10477 10481 10486 10492 10498 10505 10511 10516 10521 10527 10534 10541 10547 10553 10561 10568 10573 10578 10584 10591 10596 10600 10606 10611 10617 10623 10627 10631 10636 10640 10643 10646 10649 10652 10653 10655 10657 10657 10659 10664 10665 10665 10666 10665 10665 10667 10668 10668
10385 10385 10386 10387 10389 10390 10392 10394 10395 10395 10394 10394 10394 10395 10396 10398 10400 10402 10405 10407 10408 10410 10410 10412 10414 10416 10418 10422 10425 10429 10434 10438 10439 10441 10444 10448 10454 10461 10467 10472 10478 10484 10491 10497 10502 10507 10514 10521 10528 10535 10542 10549 10555 10562 10568 10574 10579 10585 10590 10595 10601 10608 10615 10617 10620 10626 10631 10634 10637 10640 10643 10645 10649 10651 10650 10653 10657 10658 10658 10659 10658 10659 10662 10663 10662
10371 10372 10373 10374 10376 10378 10380 10381 10381 10380 10380 10379 10380 10381 10382 10384 10386 10388 10390 10392 10393 10394 10395 10396 10399 10401 10403 10406 10410 10415 10419 10421 10422 10425 10429 10433 10438 10445 10453 10459 10464 10471 10477 10482 10488 10494 10500 10508 10515 10522 10529 10536 10543 10551 10558 10563 10569 10574 10578 10584 10591 10598 10604 10607 10609 10614 10622 10627 10630 10633 10635 10638 10642 10644 10645 10648 10651 10650 10650 10652 10652 10654 10657 10656 10656
10359 10359 10361 10363 10365 10367 10368 10368 10367 10367 10366 10366 10367 10368 10369 10371 10372 10374 10376 10377 10378 10379 10380 10382 10384 10386 10389 10393 10397 10401 10404 10404 10405 10409 10414 10419 10423 10430 10439 10446 10452 10458 10463 10469 10474 10480 10487 10494 10502 10510 10516 10524 10532 10540 10547 10553 10558 10562 10566 10574 10581 10586 10591 10597 10599 10605 10614 10621 10624 10626 10627 10631 10635 10637 10640 10642 10640 10639 10644 10647 10646 10648 10650 10650 10650
10348 10349 10351 10353 10355 10355 10355 10355 10354 10354 10353 10353 10354 10356 10357 10358 10359 10361 10363 10364 10365 10366 10367 10369 10371 10373 10376 10380 10384 10387 10388 10388 10390 10395 10400 10405 10409 10417 10426 10434 10440 10445 10450 10456 10461 10466 10473 10481 10489 10497 10503 10512 10521 10529 10535 10541 10546 10551 10556 10563 10570 10574 10579 10587 10593 10599 10606 10612 10616 10617 10619 10623 10627 10630 10634 10634 10630 10632 10640 10641 10639 10641 10643 10644 10644
10339 10341 10342 10343 10343 10343 10343 10343 10342 10341 10342 10342 10343 10345 10346 10347 10347 10349 10350 10352 10353 10354 10355 10357 10358 10361 10364 10368 10371 10374 10374 10375 10378 10382 10387 10392 10398 10406 10415 10422 10429 10434 10438 10442 10446 10452 10460 10468 10476 10484 10491 10500 10509 10516 10522 10528 10533 10540 10546 10553 10560 10565 10571 10579 10586 10590 10597 10604 10608 10610 10612 10616 10619 10622 10627 10627 10624 10628 10635 10634 10632 10634 10636 10636 10637
10331 10333 10333 10333 10333 10333 10333 10332 10331 10331 10332 10333 10333 10334 10335 10335 10336 10338 10340 10342 10342 10343 10344 10346 10347 10350 10354 10356 10359 10363 10363 10364 10367 10372 10377 10383 10390 10398 10405 10412 10419 10423 10425 10429 10433 10440 10448 10455 10463 10471 10478 10487 10495 10502 10508 10515 10522 10530 10538 10546 10553 10558 10564 10571 10576 10582 10590 10596 10600 10603 10605 10609 10613 10615 10619 10620 10620 10624 10627 10626 10626 10628 10628 10629 10630
10323 10324 10323 10323 10324 10324 10323 10322 10322 10322 10323 10323 10323 10324 10324 10326 10327 10329 10331 10332 10332 10332 10334 10336 10338 10340 10344 10347 10350 10353 10354 10354 10358 10363 10369 10376 10383 10389 10395 10402 10408 10411 10413 10417 10422 10430 10437 10444 10451 10458 10465 10473 10482 10489 10496 10504 10512 10520 10529 10538 10545 10550 10556 10563 10569 10575 10582 10587 10591 10595 10599 10603 10606 10607 10610 10614 10616 10618 10619 10619 10620 10621 10621 10622 10623
10315 10315 10315 10314 10315 10314 10314 10314 10314 10314 10314 10314 10314 10315 10316 10318 10319 10321 10322 10323 10323 10323 10325 10328 10330 10332 10335 10338 10341 10343 10345 10346 10350 10357 10363 10370 10376 10380 10386 10393 10397 10400 10403 10407 10413 10420 10426 10433 10440 10446 10453 10462 10469 10477 10485 10494 10503 10511 10521 10530 10538 10543 10548 10555 10561 10566 10572 10578 10582 10587 10591 10595 10596 10599 10604 10608 10609 10611 10612 10614 10615 10615 10615 10614 10615
10307 10307 10306 10306 10306 10306 10306 10307 10306 10306 10306 10306 10306 10308 10310 10311 10312 10313 10314 10314 10315 10316 10318 10321 10323 10325 10328 10331 10333 10335 10338 10340 10344 10351 10357 10362 10367 10372 10378 10383 10386 10389 10393 10398 10404 10410 10417 10424 10430 10436 10443 10450 10457 10465 10475 10484 10493 10502 10511 10521 10528 10532 10538 10546 10552 10557 10563 10569 10575 10580 10583 10586 10588 10593 10598 10601 10602 10605 10607 10609 10610 10609 10607 10608 10609
10299 10299 10298 10298 10299 10299 10299 10300 10299 10298 10298 10299 10300 10302 10304 10305 10305 10306 10307 10308 10309 10311 10312 10315 10318 10319 10322 10325 10327 10329 10332 10334 10339 10345 10350 10354 10358 10363 10368 10372 10375 10379 10385 10390 10397 10403 10409 10414 10420 10425 10432 10438 10445 10455 10465 10473 10482 10492 10502 10510 10516 10522 10530 10537 10543 10548 10554 10561 10568 10573 10575 10577 10582 10588 10592 10593 10595 10599 10601 10602 10603 10602 10601 10602 10603
10292 10292 10291 10291 10292 10292 10292 10293 10292 10292 10292 10294 10296 10297 10298 10299 10300 10300 10302 10303 10304 10306 10307 10310 10312 10314 10316 10319 10320 10323 10326 10329 10333 10338 10343 10346 10351 10355 10359 10363 10366 10372 10378 10384 10389 10394 10399 10403 10408 10415 10422 10429 10436 10445 10455 10463 10473 10484 10492 10500 10506 10514 10522 10529 10534 10540 10546 10554 10561 10565 10567 10570 10576 10581 10584 10586 10589 10592 10594 10596 10596 10595 10596 10596 10596
10285 10285 10285 10286 10285 10286 10286 10286 10286 10287 10288 10289 10290 10291 10292 10294 10295 10296 10297 10298 10299 10301 10303 10305 10307 10309 10311 10313 10315 10317 10320 10323 10326 10331 10335 10339 10343 10348 10352 10356 10360 10365 10370 10375 10380 10384 10389 10394 10399 10406 10415 10421 10428 10437 10447 10456 10466 10476 10483 10490 10497 10506 10515 10522 10528 10534 10541 10548 10553 10558 10561 10565 10570 10574 10576 10579 10582 10585 10587 10589 10589 10589 10590 10590 10589
10279 10279 10280 10279 10279 10280 10281 10281 10281 10282 10283 10284 10285 10286 10288 10290 10291 10291 10292 10293 10295 10297 10299 10300 10302 10304 10305 10307 10309 10312 10315 10318 10321 10324 10329 10333 10337 10341 10345 10349 10353 10358 10362 10367 10371 10376 10380 10385 10391 10399 10409 10416 10423 10431 10440 10449 10458 10467 10473 10480 10489 10499 10508 10515 10521 10527 10535 10542 10547 10551 10556 10559 10562 10566 10568 10571 10575 10578 10580 10581 10582 10583 10583 10582 10584
10274 10274 10274 10274 10274 10275 10276 10276 10277 10278 10278 10279 10281 10282 10284 10286 10287 10287 10288 10289 10291 10293 10294 10296 10298 10299 10301 10303 10305 10308 10311 10314 10317 10320 10323 10327 10331 10335 10339 10343 10346 10350 10354 10359 10363 10367 10372 10379 10386 10395 10404 10411 10417 10424 10433 10441 10449 10457 10465 10473 10482 10491 10500 10508 10514 10521 10529 10536 10540 10544 10549 10552 10554 10556 10560 10564 10569 10571 10573 10575 10576 10576 10576 10576 10579
10268 10268 10268 10269 10269 10271 10272 10273 10273 10274 10274 10276 10277 10279 10281 10283 10283 10283 10285 10286 10287 10288 10289 10291 10293 10295 10297 10299 10301 10304 10307 10309 10312 10315 10319 10321 10324 10328 10332 10335 10338 10342 10347 10351 10355 10361 10368 10375 10382 10389 10397 10404 10410 10416 10425 10433 10441 10450 10458 10466 10475 10484 10492 10500 10507 10513 10521 10528 10532 10537 10541 10543 10544 10548 10552 10557 10561 10564 10566 10568 10569 10569 10570 10571 10573
10263 10263 10264 10264 10266 10267 10269 10269 10270 10270 10271 10273 10274 10276 10278 10279 10280 10281 10282 10283 10283 10284 10285 10287 10289 10290 10292 10295 10297 10299 10302 10304 10307 10309 10312 10315 10318 10320 10324 10327 10331 10335 10340 10344 10349 10356 10364 10371 10377 10383 10391 10398 10403 10410 10419 10428 10436 10444 10452 10459 10468 10477 10486 10494 10501 10508 10515 10521 10526 10529 10530 10530 10535 10541 10546 10549 10554 10557 10560 10561 10562 10563 10565 10566 10567
10258 10259 10259 10261 10262 10264 10265 10266 10267 10267 10268 10270 10272 10273 10275 10276 10277 10278 10279 10279 10280 10281 10282 10283 10284 10285 10288 10290 10292 10294 10296 10298 10301 10303 10305 10308 10311 10313 10316 10319 10323 10329 10333 10338 10345 10352 10359 10365 10371 10378 10386 10392 10398 10406 10414 10422 10429 10437 10445 10453 10462 10471 10480 10488 10496 10503 10509 10514 10519 10521 10519 10521 10529 10536 10540 10543 10548 10551 10552 10554 10555 10557 10559 10560 10560
10254 10254 10255 10257 10259 10261 10262 10263 10264 10265 10266 10267 10269 10271 10272 10273 10274 10276 10276 10276 10277 10278 10278 10279 10280 10281 10283 10284 10286 10288 10290 10292 10294 10296 10298 10301 10304 10307 10309 10312 10317 10323 10328 10335 10342 10350 10355 10361 10367 10374 10381 10387 10394 10401 10408 10415 10422 10430 10439 10447 10456 10464 10473 10480 10488 10495 10500 10506 10510 10511 10513 10518 10525 10531 10534 10538 10541 10543 10544 10546 10549 10551 10553 10553 10552
10250 10251 10252 10253 10255 10257 10258 10260 10261 10262 10263 10265 10266 10268 10270 10270 10271 10273 10273 10273 10274 10274 10275 10275 10276 10277 10278 10279 10280 10282 10283 10285 10287 10290 10292 10294 10297 10300 10303 10306 10311 10317 10324 10332 10340 10346 10352 10358 10364 10371 10377 10383 10388 10394 10401 10408 10415 10423 10432 10440 10449 10459 10467 10474 10482 10488 10494 10498 10502 10505 10509 10516 10522 10525 10529 10532 10533 10535 10537 10540 10543 10546 10546 10545 10545
10246 10247 10248 10250 10252 10254 10255 10256 10257 10259 10260 10262 10264 10266 10267 10267 10268 10270 10271 10271 10271 10271 10271 10272 10272 10272 10273 10274 10275 10276 10278 10279 10281 10283 10286 10288 10290 10293 10296 10300 10305 10312 10321 10329 10336 10343 10350 10356 10362 10367 10373 10378 10384 10390 10396 10403 10410 10418 10426 10435 10444 10452 10460 10468 10475 10482 10486 10490 10495 10500 10507 10512 10517 10520 10522 10524 10526 10528 10531 10534 10537 10538 10538 10538 10540
10242 10243 10244 10247 10249 10251 10252 10253 10254 10256 10258 10260 10262 10264 10265 10265 10265 10267 10268 10268 10268 10268 10268 10268 10268 10268 10268 10268 10269 10271 10272 10273 10275 10277 10280 10282 10284 10287 10291 10295 10301 10308 10317 10325 10333 10340 10347 10353 10358 10364 10370 10375 10380 10386 10392 10399 10406 10414 10422 10429 10437 10445 10453 10461 10467 10473 10478 10484 10490 10497 10503 10507 10511 10513 10515 10517 10519 10522 10525 10528 10530 10530 10530 10532 10533
10239 10240 10241 10243 10245 10248 10250 10251 10252 10254 10256 10257 10260 10262 10262 10262 10263 10264 10265 10265 10265 10265 10264 10264 10264 10264 10264 10264 10264 10266 10267 10268 10270 10272 10275 10277 10280 10283 10287 10292 10298 10305 10313 10321 10329 10336 10343 10350 10356 10361 10367 10372 10378 10383 10389 10397 10404 10412 10419 10426 10433 10440 10447 10455 10462 10469 10475 10482 10489 10495 10499 10503 10505 10507 10508 10511 10514 10517 10519 10520 10521 10522 10524 10526 10526
10236 10237 10238 10240 10242 10245 10247 10248 10250 10252 10253 10255 10257 10259 10260 10260 10260 10261 10262 10262 10262 10262 10262 10261 10261 10261 10260 10260 10261 10262 10263 10264 10266 10268 10271 10273 10277 10281 10285 10291 10297 10304 10312 10319 10327 10334 10340 10347 10353 10358 10363 10369 10375 10381 10388 10395 10402 10410 10418 10425 10431 10437 10445 10453 10461 10468 10474 10481 10486 10491 10495 10497 10498 10500 10502 10505 10508 10510 10511 10513 10515 10516 10518 10518 10518
10233 10234 10235 10237 10240 10242 10244 10246 10247 10249 10251 10253 10255 10257 10258 10258 10259 10259 10260 10260 10260 10260 10260 10260 10259 10258 10258 10258 10258 10259 10260 10262 10263 10266 10268 10271 10275 10279 10284 10290 10296 10304 10311 10319 10326 10333 10340 10346 10351 10357 10362 10367 10373 10380 10386 10393 10400 10409 10416 10423 10430 10438 10446 10454 10460 10466 10472 10478 10482 10486 10488 10490 10491 10493 10496 10498 10500 10502 10504 10507 10509 10510 10510 10511 10511
10230 10231 10233 10235 10237 10239 10242 10243 10245 10247 10249 10251 10253 10255 10257 10257 10257 10258 10258 10259 10259 10259 10259 10259 10258 10257 10256 10256 10257 10257 10259 10260 10262 10265 10268 10271 10275 10280 10285 10291 10298 10305 10312 10320 10327 10333 10339 10345 10351 10356 10361 10367 10373 10380 10387 10394 10401 10409 10417 10424 10431 10438 10444 10451 10456 10462 10468 10473 10476 10478 10480 10483 10485 10488 10490 10490 10492 10495 10499 10502 10503 10503 10503 10503 10504
10227 10229 10230 10232 10234 10237 10239 10241 10243 10245 10247 10249 10251 10253 10255 10255 10256 10257 10257 10258 10259 10259 10259 10259 10258 10257 10256 10256 10257 10257 10259 10261 10263 10266 10269 10273 10277 10282 10288 10294 10301 10307 10314 10321 10327 10333 10339 10344 10349 10354 10360 10366 10373 10381 10389 10396 10403 10410 10418 10425 10430 10436 10442 10448 10454 10459 10463 10467 10469 10472 10475 10478 10479 10481 10482 10483 10486 10491 10494 10495 10496 10496 10496 10497 10498
10224 10225 10227 10229 10231 10234 10237 10239 10241 10243 10244 10246 10249 10251 10253 10254 10255 10256 10257 10258 10258 10259 10259 10259 10259 10258 10257 10258 10258 10259 10261 10263 10266 10269 10272 10276 10281 10286 10292 10298 10304 10311 10316 10322 10327 10333 10338 10343 10348 10354 10361 10368 10374 10381 10388 10396 10402 10409 10416 10423 10429 10435 10441 10447 10452 10456 10459 10462 10465 10467 10469 10471 10472 10473 10475 10478 10482 10486 10487 10488 10489 10489 10490 10491 10491
10220 10222 10224 10226 10228 10232 10235 10237 10239 10241 10242 10244 10247 10249 10251 10252 10254 10255 10256 10257 10258 10259 10260 10260 10260 10260 10260 10260 10261 10263 10265 10267 10270 10273 10277 10281 10285 10290 10296 10301 10307 10313 10318 10323 10328 10332 10336 10342 10348 10355 10361 10368 10374 10380 10386 10392 10399 10406 10412 10419 10425 10432 10437 10442 10447 10450 10453 10455 10458 10460 10461 10464 10466 10467 10469 10473 10477 10479 10480 10481 10482 10483 10483 10484 10484
10216 10218 10221 10223 10226 10229 10233 10235 10237 10239 10241 10243 10245 10247 10249 10251 10253 10254 10256 10257 10258 10260 10261 10261 10262 10262 10263 10263 10265 10267 10269 10272 10275 10278 10281 10285 10289 10294 10299 10304 10309 10314 10319 10324 10328 10333 10337 10343 10348 10355 10361 10368 10374 10380 10385 10390 10397 10403 10409 10415 10421 10428 10433 10438 10441 10444 10446 10448 10451 10453 10456 10459 10461 10462 10463 10467 10470 10473 10474 10475 10476 10477 10477 10477 10477
10213 10215 10218 10221 10224 10227 10230 10233 10235 10237 10239 10241 10244 10246 10248 10249 10252 10254 10256 10257 10259 10260 10261 10263 10264 10265 10266 10267 10269 10270 10273 10277 10280 10283 10286 10289 10292 10296 10300 10305 10310 10315 10320 10325 10330 10335 10340 10346 10351 10356 10362 10368 10374 10381 10387 10393 10399 10404 10410 10415 10421 10426 10430 10433 10435 10437 10440 10443 10445 10447 10450 10452 10453 10454 10456 10461 10464 10467 10468 10469 10469 10470 10470 10470 10469
10210 10212 10215 10218 10221 10223 10227 10230 10232 10234 10236 10239 10242 10244 10246 10248 10251 10253 10255 10257 10259 10260 10262 10264 10266 10268 10269 10271 10273 10275 10277 10280 10284 10287 10290 10293 10296 10298 10302 10306 10311 10316 10322 10327 10332 10337 10342 10348 10353 10358 10364 10369 10375 10381 10387 10393 10398 10404 10409 10414 10419 10423 10425 10427 10429 10431 10434 10437 10439 10440 10443 10444 10446 10447 10451 10456 10459 10460 10462 10462 10463 10463 10463 10463 10462
10206 10209 10212 10215 10217 10220 10223 10227 10229 10231 10233 10236 10239 10242 10245 10247 10249 10252 10254 10256 10258 10260 10262 10265 10267 10270 10272 10274 10276 10279 10281 10283 10286 10289 10293 10296 10299 10302 10305 10309 10314 10318 10323 10328 10333 10338 10344 10349 10354 10360 10365 10370 10375 10380 10385 10390 10396 10400 10405 10410 10413 10416 10417 10419 10422 10424 10427 10430 10431 10433 10435 10438 10440 10443 10447 10451 10453 10454 10455 10455 10456 10456 10456 10455 10453
10203 10206 10209 10211 10213 10216 10220 10223 10226 10228 10230 10234 10237 10240 10243 10246 10248 10251 10253 10255 10258 10260 10262 10265 10267 10270 10272 10275 10278 10280 10283 10285 10288 10291 10295 10298 10301 10304 10308 10312 10316 10320 10324 10329 10333 10339 10344 10349 10355 10360 10365 10369 10374 10379 10383 10388 10392 10396 10399 10402 10405 10407 10409 10412 10415 10418 10421 10424 10426 10427 10430 10432 10435 10438 10443 10446 10447 10447 10447 10448 10449 10449 10448 10446 10445
10199 10202 10205 10207 10210 10213 10216 10219 10223 10225 10228 10231 10235 10238 10241 10244 10247 10249 10252 10254 10257 10259 10262 10264 10266 10269 10272 10275 10278 10280 10283 10286 10289 10293 10297 10300 10303 10306 10310 10314 10318 10322 10326 10330 10335 10339 10344 10349 10354 10358 10363 10367 10372 10376 10380 10384 10387 10391 10394 10397 10400 10403 10405 10408 10411 10414 10416 10419 10421 10423 10425 10427 10430 10434 10438 10439 10439 10439 10440 10442 10442 10442 10440 10438 10437
10196 10199 10201 10204 10207 10210 10213 10216 10219 10222 10225 10228 10233 10236 10240 10242 10245 10247 10250 10253 10256 10258 10261 10264 10266 10268 10271 10274 10277 10280 10283 10286 10290 10293 10297 10301 10305 10308 10311 10314 10318 10322 10326 10330 10335 10339 10344 10349 10354 10358 10362 10365 10369 10373 10376 10380 10383 10387 10390 10394 10397 10399 10402 10404 10406 10408 10411 10413 10415 10418 10420 10423 10426 10429 10431 10432 10433 10433 10434 10435 10435 10433 10432 10430 10430
10191 10194 10197 10201 10204 10207 10209 10212 10215 10218 10221 10225 10229 10234 10237 10240 10243 10246 10248 10251 10254 10257 10260 10262 10265 10267 10270 10272 10275 10278 10281 10285 10289 10293 10296 10300 10304 10307 10310 10314 10318 10322 10325 10329 10333 10338 10342 10348 10352 10356 10360 10363 10367 10370 10373 10377 10380 10383 10386 10389 10392 10394 10396 10398 10401 10403 10406 10409 10411 10413 10416 10419 10421 10423 10425 10425 10426 10427 10427 10427 10426 10425 10424 10423 10422
10186 10189 10193 10196 10199 10202 10205 10208 10211 10214 10218 10221 10226 10230 10234 10238 10241 10244 10246 10249 10252 10255 10258 10260 10263 10266 10268 10271 10273 10276 10280 10283 10288 10292 10295 10299 10302 10305 10308 10311 10315 10319 10323 10327 10331 10335 10339 10344 10348 10351 10355 10359 10362 10365 10368 10371 10374 10378 10380 10383 10386 10388 10391 10394 10397 10400 10403 10405 10407 10409 10412 10413 10415 10416 10417 10418 10418 10419 10418 10418 10418 10417 10416 10416 10414
10181 10184 10188 10191 10195 10198 10201 10204 10207 10210 10213 10217 10222 10226 10230 10234 10237 10241 10244 10246 10249 10252 10255 10258 10261 10263 10266 10269 10271 10274 10277 10281 10285 10290 10294 10297 10300 10303 10306 10309 10313 10316 10320 10324 10328 10332 10336 10340 10343 10347 10350 10354 10357 10360 10363 10366 10369 10372 10375 10378 10381 10384 10387 10390 10393 10396 10398 10400 10402 10403 10405 10406 10407 10409 10409 10410 10410 10410 10410 10410 10410 10409 10409 10408 10406
10177 10180 10183 10187 10190 10193 10196 10199 10202 10206 10209 10213 10217 10222 10226 10229 10233 10236 10240 10243 10246 10250 10253 10255 10258 10260 10263 10266 10269 10273 10275 10278 10282 10287 10291 10294 10298 10301 10304 10307 10311 10314 10317 10320 10324 10328 10331 10335 10339 10343 10346 10350 10353 10356 10359 10362 10365 10368 10371 10373 10376 10379 10382 10385 10387 10389 10391 10393 10395 10396 10398 10399 10400 10401 10402 10402 10403 10403 10403 10403 10402 10402 10401 10400 10398